This is the latest recevied weather packets stored in our database for station/object KD8ZLZ-13. If no packets are shown the sender has not sent any weather packets the latest 10 day(s).
| Time | Temp. | Humidity | Pressure | Rain* | Wind** | Luminosity | Snow |
|---|---|---|---|---|---|---|---|
| 1777377871 | 15.56° C | 92% | 1008.2 hPa | 0 mm | - | 19 W/m² | - |
| 1777377271 | 15.56° C | 92% | 1007.8 hPa | 0 mm | - | 17 W/m² | - |
| 1777376671 | 15.56° C | 92% | 1007.8 hPa | 0 mm | - | 15 W/m² | - |
| 1777376071 | 15.56° C | 90% | 1007.5 hPa | 0 mm | - | 19 W/m² | - |
| 1777375471 | 16.11° C | 89% | 1007.5 hPa | 0 mm | - | 16 W/m² | - |
| 1777374871 | 16.11° C | 88% | 1007.1 hPa | 0 mm | - | 15 W/m² | - |
| 1777374271 | 16.11° C | 87% | 1006.8 hPa | 0 mm | - | 6 W/m² | - |
| 1777373671 | 16.11° C | 86% | 1006.8 hPa | 0 mm | - | 4 W/m² | - |
| 1777373071 | 16.11° C | 86% | 1006.8 hPa | 0 mm | - | 1 W/m² | - |
| 1777372471 | 16.11° C | 86% | 1006.8 hPa | 0 mm | - | 0 W/m² | - |
| 1777371871 | 16.11° C | 86% | 1006.8 hPa | 0 mm | - | 0 W/m² | - |
| 1777371271 | 16.11° C | 86% | 1006.5 hPa | 0 mm | - | 0 W/m² | - |
| 1777370671 | 15.56° C | 87% | 1006.5 hPa | 0 mm | - | 0 W/m² | - |
| 1777370071 | 15.56° C | 88% | 1006.5 hPa | 0 mm | - | 0 W/m² | - |
| 1777369471 | 15.56° C | 90% | 1006.5 hPa | 0 mm | - | 0 W/m² | - |
| 1777368871 | 15.56° C | 91% | 1006.5 hPa | 0 mm | - | 0 W/m² | - |
| 1777368271 | 15.56° C | 91% | 1006.5 hPa | 0 mm | - | 0 W/m² | - |
| 1777367671 | 15° C | 92% | 1006.5 hPa | 0 mm | - | 0 W/m² | - |
| 1777367071 | 15.56° C | 91% | 1006.5 hPa | 0 mm | - | 0 W/m² | - |
| 1777366471 | 15.56° C | 91% | 1006.8 hPa | 0 mm | - | 0 W/m² | - |
| 1777365871 | 15.56° C | 90% | 1006.5 hPa | 0 mm | - | 0 W/m² | - |
| 1777365271 | 15.56° C | 90% | 1006.5 hPa | 0 mm | - | 0 W/m² | - |
| 1777364671 | 15.56° C | 89% | 1006.5 hPa | 0 mm | - | 0 W/m² | - |
| 1777364071 | 16.11° C | 89% | 1006.5 hPa | 0 mm | - | 0 W/m² | - |
| 1777363471 | 16.11° C | 89% | 1006.1 hPa | 0 mm | - | 0 W/m² | - |
* Rain latest hour (hover to see other rain measurements)
** Current wind speed in m/s (hover to see current wind gust speed)